Theta_e
306 306 306 306 307 307 307 308 308 309 309 310 311 312 313 313 313 308 306 306 304 297 297 301 302 295 296 294 291 296 293 293 292 286 286 285 284 288 288 290 288 284 280 278 281 279 276 296 296 290 290 293 296 297
306 306 305 306 306 306 307 307 308 308 309 309 310 311 313 313 312 310 301 308 309 301 299 306 305 304 302 302 297 296 294 294 294 287 287 288 285 287 284 281 292 284 287 281 281 280 290 294 293 296 296 295 295 296
306 306 305 305 306 306 306 307 307 308 308 309 309 311 312 312 312 310 301 305 302 301 300 301 301 306 305 305 304 295 295 300 296 294 290 288 286 288 281 284 288 292 293 286 286 289 291 295 299 299 298 297 299 299
305 305 305 305 305 305 306 306 307 307 308 309 309 310 311 311 311 311 301 305 301 300 297 298 308 304 308 304 305 303 300 302 299 296 290 288 286 291 285 287 286 290 291 288 287 291 294 295 295 297 297 297 297 298
304 305 305 305 305 305 305 306 306 307 308 309 310 310 311 311 310 307 304 308 305 299 295 296 302 305 304 304 304 302 300 299 298 294 290 287 291 290 289 287 285 291 290 286 284 292 291 290 293 297 295 297 299 298
304 304 305 305 305 305 305 306 306 307 308 309 310 310 310 310 310 305 303 307 307 306 301 295 301 301 304 305 302 302 301 298 295 293 290 292 296 291 285 282 290 297 297 294 291 294 293 295 297 300 296 297 299 297
304 304 304 305 305 305 306 306 307 307 308 308 309 309 309 309 304 301 298 301 306 309 302 296 294 302 303 302 301 301 301 299 299 297 294 293 293 293 285 280 293 295 296 295 296 296 294 299 297 300 301 302 302 301
304 304 304 304 304 305 305 306 307 307 307 308 308 308 308 308 307 303 306 308 306 305 304 295 292 294 300 295 293 299 297 297 297 295 297 295 295 291 281 290 295 297 297 298 299 298 297 299 301 301 302 302 299 299
304 304 304 304 304 305 305 306 307 307 306 307 309 309 307 304 301 305 314 311 307 306 296 293 289 287 298 295 295 296 296 290 296 291 294 294 288 281 289 292 295 296 296 298 301 301 301 300 298 299 300 299 300 298
304 304 304 304 304 304 305 306 307 306 307 310 311 308 302 306 314 311 307 302 304 304 303 294 294 290 295 293 293 291 293 290 287 291 295 284 282 291 295 297 297 298 298 300 297 296 298 297 297 297 298 300 301 301
304 304 304 304 304 305 305 306 306 306 307 303 299 301 305 311 305 303 299 298 295 293 296 295 294 291 296 291 291 293 291 291 286 290 289 286 285 293 298 297 298 298 299 298 298 299 299 298 299 299 300 302 301 302
305 304 304 304 304 305 306 306 306 299 297 299 298 301 304 306 298 294 292 294 293 291 295 292 293 295 295 298 293 293 291 293 287 295 291 283 290 296 299 299 299 299 299 300 300 300 301 302 300 302 302 302 303 303
304 304 304 304 304 305 306 305 305 305 304 304 303 305 301 295 287 292 288 290 289 294 295 296 294 295 297 296 293 293 290 288 296 287 281 285 293 299 299 299 299 300 301 301 301 302 301 301 305 304 302 303 301 301
304 304 304 304 304 306 305 304 304 303 303 304 305 291 293 291 293 293 292 292 296 296 296 295 294 293 294 294 294 293 294 294 285 280 281 291 296 298 300 302 301 300 300 300 301 303 298 301 301 304 303 302 301 300
304 304 304 304 305 304 304 304 304 301 304 302 302 287 293 296 297 298 298 298 299 298 297 294 294 294 293 293 294 293 290 286 282 287 293 296 299 299 300 300 301 300 300 301 299 299 300 301 302 301 300 300 300 302
304 303 305 305 304 304 303 302 303 306 308 305 302 296 297 296 296 297 297 297 299 297 296 295 292 291 290 291 291 289 285 279 285 293 295 296 296 298 299 301 302 303 302 299 299 299 301 300 299 300 301 300 300 300
303 298 305 306 304 303 303 301 305 306 305 302 298 300 300 299 298 299 298 299 299 294 290 292 290 289 292 288 288 288 284 289 292 295 296 296 297 298 300 300 303 303 300 297 300 303 300 300 299 298 297 296 300 301
299 303 306 305 303 300 303 304 304 302 299 299 295 298 299 301 299 300 300 301 298 295 294 292 294 288 288 286 282 289 294 294 296 296 295 296 297 301 302 301 304 303 300 299 300 300 300 300 298 298 298 300 298 299
302 302 304 304 301 297 298 300 304 297 297 297 297 297 299 300 302 302 302 301 301 300 297 295 294 288 288 292 292 293 294 295 295 297 298 299 300 302 302 303 304 302 300 300 298 297 298 299 298 297 297 296 295 299
303 303 304 304 303 299 298 298 304 299 296 296 296 296 297 298 301 302 301 302 299 297 295 294 294 294 294 297 297 297 296 297 297 296 297 297 299 301 301 300 298 300 302 302 300 297 298 296 296 297 297 295 295 295
301 303 306 302 301 299 297 296 295 298 299 296 298 297 298 300 299 299 299 302 297 296 295 298 298 300 302 300 300 299 299 299 298 298 297 295 298 301 299 299 300 300 300 300 300 299 297 297 297 296 296 294 295 296
298 305 303 305 301 301 299 301 297 297 295 295 295 295 295 295 295 297 302 298 296 299 301 300 301 300 301 299 300 300 299 299 298 298 296 297 298 298 298 300 299 298 299 302 302 300 300 302 301 298 293 293 296 295
302 303 302 304 300 294 292 299 294 296 293 294 296 294 295 296 299 302 296 297 299 302 303 303 303 302 302 302 301 301 301 302 300 300 299 297 298 300 299 300 299 297 298 299 301 301 301 297 293 294 294 294 295 294
304 300 299 298 297 290 299 295 297 295 295 294 293 293 295 296 300 298 296 298 301 303 303 302 302 300 301 301 300 299 299 300 299 298 298 298 297 299 300 301 302 302 301 301 301 301 302 300 293 293 294 294 294 294
292 292 292 285 295 293 295 295 295 294 293 294 295 294 296 299 295 295 295 298 300 301 301 301 302 302 300 301 301 301 302 300 297 297 299 300 299 299 300 302 302 303 304 301 299 299 297 295 295 295 295 296 296 297
289 295 290 295 294 291 291 291 293 294 294 294 295 298 298 296 294 294 297 300 301 302 302 302 301 299 299 301 302 302 302 302 301 298 301 302 303 301 299 297 298 298 302 302 300 300 299 299 299 299 298 296 292 297
289 293 296 300 297 296 294 295 296 296 293 293 294 295 295 293 293 297 303 304 303 305 305 305 304 303 302 303 304 305 304 304 302 302 304 304 305 304 303 300 300 302 304 305 304 303 302 302 302 301 299 299 299 297
296 297 293 296 297 298 296 297 297 295 295 298 297 294 293 293 293 302 302 305 306 306 305 306 306 306 306 304 303 302 302 303 304 303 301 303 305 305 305 303 304 292 300 302 301 303 304 303 301 300 298 297 297 298
294 297 297 295 296 296 296 296 296 300 301 298 295 294 296 301 302 301 303 303 305 302 301 301 300 301 301 303 305 303 299 298 297 296 295 296 297 300 304 303 302 304 306 300 287 291 301 301 300 299 298 297 297 297
295 298 295 295 294 293 296 300 298 301 301 300 301 300 301 299 300 302 302 302 299 297 298 298 296 295 296 293 293 296 295 293 292 293 294 295 298 303 304 303 304 303 305 301 297 296 290 294 292 295 293 293 293 293
299 298 296 296 295 297 299 301 301 302 302 300 301 298 298 298 300 301 299 296 295 295 295 294 294 295 295 292 291 291 290 293 293 293 291 293 298 298 299 298 300 301 299 298 296 294 292 291 291 291 291 290 290 289
298 297 295 294 295 299 300 298 298 297 297 297 296 300 298 299 295 296 298 294 295 295 292 295 295 295 296 297 296 295 289 293 292 292 290 291 297 297 297 296 296 296 295 294 293 292 292 290 289 288 288 288 288 287
298 298 298 296 295 295 297 296 296 296 297 295 297 297 296 295 291 295 299 299 296 296 296 296 296 295 295 295 295 294 292 294 291 287 287 287 286 290 295 295 295 294 292 291 290 290 290 289 289 288 286 285 284 283
Wind_Speed
16 17 18 18 18 18 19 18 19 20 21 21 21 20 21 20 20 7 5 3 4 3 4 3 1 3 4 2 2 7 6 7 5 7 4 3 4 3 3 3 4 2 2 1 3 3 2 2 3 3 3 2 1 4
16 17 17 18 18 18 18 18 18 19 20 20 20 19 19 18 17 13 4 5 2 5 5 2 4 4 4 5 5 3 4 2 1 3 3 2 3 3 2 3 6 4 3 4 4 5 5 5 3 4 3 2 3 4
16 17 17 18 18 18 18 18 19 19 20 19 19 19 17 17 14 7 2 4 5 3 5 4 4 9 4 4 5 4 4 3 1 4 4 1 2 2 3 3 3 6 2 4 4 4 2 5 4 4 5 4 4 6
16 16 17 18 19 19 19 19 19 20 20 19 18 18 17 15 14 6 1 2 4 2 3 8 3 7 6 4 5 5 5 4 5 3 3 2 1 2 2 3 2 4 3 4 2 2 5 4 5 5 5 5 4 4
16 16 17 18 19 20 20 20 20 21 20 19 18 18 17 16 15 4 3 2 2 6 3 5 7 8 8 7 8 5 2 3 2 2 2 3 2 3 2 3 3 0 4 4 5 6 3 3 3 4 4 3 4 5
16 17 18 19 20 20 20 20 20 21 21 20 18 18 15 13 14 3 4 2 2 4 3 3 5 5 3 5 5 7 6 2 3 4 3 2 3 5 3 1 5 3 4 6 3 4 6 7 7 5 4 5 5 7
16 17 18 19 20 20 21 21 22 23 23 21 19 16 13 7 2 3 6 6 3 3 3 4 5 6 2 2 2 3 4 2 4 1 2 2 1 4 4 3 4 6 7 6 7 7 3 3 3 2 6 6 6 4
17 18 19 20 20 21 21 22 23 25 25 24 20 17 11 8 5 4 4 6 4 3 2 1 5 4 0 2 3 1 1 4 5 1 3 1 2 3 0 6 5 6 6 5 5 3 7 7 7 5 2 2 3 3
17 18 19 20 21 21 21 22 23 27 28 26 17 8 2 3 1 5 1 6 1 4 1 1 2 4 4 3 2 4 3 4 3 2 2 3 2 2 7 6 7 7 7 6 7 8 5 5 6 5 3 1 2 3
18 19 20 20 21 21 21 21 22 27 28 20 5 4 4 3 6 4 5 3 3 2 1 2 1 2 3 1 4 3 2 3 1 5 1 3 4 5 5 6 7 7 8 9 6 4 4 2 5 4 6 6 2 3
18 19 21 21 21 21 20 20 20 25 10 6 5 3 5 11 3 2 2 2 1 1 1 3 4 2 3 1 4 2 2 1 1 4 3 2 4 4 3 5 6 7 7 5 4 3 5 5 5 5 5 5 5 4
19 20 21 22 21 20 18 18 15 6 1 2 3 5 4 3 3 1 3 3 2 3 3 1 4 4 3 3 3 3 1 2 3 2 3 3 4 3 4 3 4 7 7 6 5 6 7 8 7 7 6 5 6 5
20 21 21 22 21 17 17 17 16 11 10 2 2 2 1 2 4 2 2 4 3 2 2 3 5 2 3 3 1 2 2 4 2 3 3 6 4 3 4 3 5 6 6 4 6 6 7 7 8 9 7 5 9 6
21 22 22 22 18 15 18 19 17 8 2 2 2 5 4 4 4 5 5 5 6 4 2 1 3 1 1 3 2 3 3 2 3 3 4 4 4 7 6 5 4 5 6 7 7 7 5 5 4 5 2 5 6 5
23 25 24 14 11 18 23 22 16 3 1 3 2 4 6 5 3 5 4 2 2 3 2 3 3 3 2 3 2 3 3 1 4 4 4 4 7 7 5 8 10 6 6 6 5 3 1 7 6 6 7 7 6 5
24 23 4 9 18 26 27 15 2 3 3 4 5 4 4 0 4 4 2 1 2 2 2 3 1 3 1 2 1 3 2 5 5 4 4 4 5 8 2 4 9 10 6 6 7 6 6 7 8 8 7 6 6 6
20 5 11 22 25 28 16 3 1 4 5 5 5 4 4 4 5 6 3 5 3 4 2 3 0 4 1 2 2 4 6 5 5 5 4 6 6 8 4 6 10 13 7 7 3 4 4 3 1 2 1 2 7 7
5 9 23 24 17 8 4 2 3 4 6 6 3 6 3 4 4 4 3 3 4 4 3 3 3 2 4 4 5 5 5 4 5 5 5 6 7 5 5 8 8 13 7 6 8 7 7 6 3 2 5 3 6 7
13 17 27 22 5 3 4 4 3 4 6 4 4 3 3 4 4 4 2 1 3 4 6 2 3 4 5 5 5 5 4 4 3 4 4 6 10 11 12 11 9 5 1 2 4 3 3 4 4 4 4 1 2 4
25 22 22 12 9 1 5 6 1 3 4 5 2 4 3 4 4 3 2 4 3 4 3 4 6 6 5 5 5 5 5 5 3 3 4 5 4 8 8 6 4 5 4 4 2 3 1 3 3 4 4 5 5 5
10 5 3 5 3 4 4 4 5 4 4 3 3 2 5 3 4 3 4 5 3 5 5 5 5 6 6 5 4 3 5 4 5 5 6 4 4 7 5 6 5 4 4 4 4 3 5 3 5 4 3 3 5 6
6 9 3 3 2 3 5 5 4 5 3 5 5 2 3 3 4 4 2 3 4 5 5 4 3 2 2 3 5 5 6 5 5 3 5 4 3 4 4 5 4 4 5 5 5 4 3 4 5 5 4 5 7 5
10 3 3 4 4 2 8 1 3 4 3 4 3 4 4 3 5 1 2 3 4 3 4 3 4 3 4 4 4 2 1 1 3 3 4 4 3 5 4 4 5 5 6 6 4 4 5 8 6 6 5 5 5 5
6 3 4 4 5 6 3 4 3 3 3 3 3 5 5 5 3 1 1 4 4 6 6 6 3 3 3 2 3 3 5 1 2 3 3 4 3 5 5 5 5 5 6 5 3 5 8 9 8 5 5 5 5 5
2 7 3 6 5 3 5 4 4 3 5 5 4 3 8 3 2 3 4 3 4 6 7 6 7 6 4 4 5 5 4 3 3 3 3 3 2 5 5 5 6 5 1 3 4 5 6 5 5 8 4 4 6 6
6 5 7 5 4 5 5 3 3 3 3 3 3 4 4 4 1 4 2 3 3 4 7 5 4 4 4 2 4 6 5 3 3 2 3 3 6 5 6 5 3 2 3 3 2 3 5 4 6 7 7 7 5 10
7 7 5 5 4 4 4 4 4 4 5 4 2 4 4 4 4 2 2 4 3 3 4 3 3 4 6 7 4 4 4 5 4 5 4 1 3 4 4 4 4 4 3 4 5 5 3 6 6 6 7 9 11 9
6 5 6 4 4 4 6 5 3 3 3 2 3 2 1 3 3 2 3 4 4 4 4 4 7 6 4 4 4 5 5 6 7 5 1 2 1 2 5 1 5 10 6 5 5 5 4 6 10 12 10 11 9 8
5 4 3 8 7 4 5 5 5 2 4 2 2 1 1 1 3 3 3 5 4 4 8 7 7 7 7 7 5 7 8 8 10 10 8 4 4 4 4 3 2 4 3 4 10 8 8 11 11 10 12 10 8 9
6 5 4 4 3 5 5 3 3 3 2 4 4 3 2 3 2 3 3 3 5 6 5 5 5 7 8 7 7 10 9 9 8 7 6 5 7 5 5 4 4 4 1 12 12 10 10 13 12 11 11 9 9 9
4 1 3 3 4 4 4 2 2 2 3 4 4 3 4 4 3 1 4 4 4 4 4 6 8 8 7 7 8 8 9 10 12 12 10 8 5 9 9 9 8 10 9 10 9 11 10 10 11 12 12 13 13 11
3 4 3 3 4 2 3 1 3 3 3 3 3 4 3 3 3 2 3 3 5 6 5 6 6 6 7 6 6 4 5 7 10 11 14 9 8 10 9 8 8 9 11 12 12 11 13 12 10 10 11 13 12 10
3 3 3 1 2 2 2 2 3 4 3 2 3 4 4 3 3 1 1 3 2 2 2 4 5 5 8 9 8 6 6 7 9 11 12 12 12 9 8 8 9 10 13 12 11 11 12 13 10 9 8 10 12 13
Wind_Direction
4 2 357 355 353 350 348 348 350 351 348 349 353 354 353 358 356 16 278 359 111 131 284 47 325 355 352 59 80 283 18 354 11 30 33 333 16 341 19 360 326 55 74 16 42 61 333 282 290 218 184 122 320 78
0 358 353 352 348 347 344 342 345 347 340 343 347 351 352 352 355 351 350 321 61 97 219 287 266 275 167 198 147 340 181 298 217 58 22 19 353 6 354 344 329 26 147 158 128 210 241 284 73 54 120 140 156 141
356 353 350 347 344 343 340 339 341 340 334 336 340 344 348 344 351 0 273 295 28 53 334 37 310 297 300 182 168 106 295 202 39 156 156 182 26 105 3 309 357 353 123 95 72 315 309 40 82 160 193 227 199 170
350 348 345 344 341 339 336 336 339 332 326 329 333 334 340 336 332 341 342 279 96 115 102 279 333 283 295 263 185 176 196 67 101 109 121 137 172 152 240 222 123 229 20 130 41 326 52 43 108 135 113 98 97 118
345 343 340 339 337 337 334 333 334 324 320 325 326 327 331 329 324 299 216 258 168 122 209 271 305 259 262 299 283 297 137 176 150 136 128 214 193 71 337 61 330 258 177 126 215 218 143 209 172 144 134 164 164 146
341 339 336 335 334 333 332 330 328 318 317 318 318 318 323 326 330 26 32 287 319 104 102 317 270 289 288 287 261 283 248 205 158 149 192 219 182 104 93 230 262 77 108 159 148 160 143 183 200 208 209 218 172 165
337 335 332 332 330 331 331 328 323 317 314 313 311 305 306 316 343 138 193 219 92 88 104 315 313 279 265 214 278 289 13 77 99 1 76 220 282 96 111 161 258 140 146 145 153 132 159 187 244 142 56 55 59 64
333 332 330 329 327 330 330 326 320 318 316 314 309 301 295 282 241 325 261 237 137 114 111 192 272 358 310 318 319 212 55 38 356 18 353 186 29 60 4 237 239 186 162 165 165 157 117 147 81 84 131 82 58 342
330 329 325 325 325 329 328 324 319 320 319 317 315 311 51 55 41 247 230 113 140 132 196 106 146 257 352 310 276 341 84 55 324 29 265 78 344 237 224 213 206 185 174 161 120 110 104 122 174 199 221 191 184 286
325 324 323 323 325 328 326 321 321 322 320 314 20 29 332 241 301 352 7 32 17 317 59 208 149 288 91 359 297 12 38 149 176 249 51 79 253 254 258 251 191 165 151 139 141 152 140 203 209 208 209 247 246 257
322 321 320 323 325 325 321 318 326 325 355 15 5 292 283 299 21 38 279 141 233 235 258 235 183 207 305 12 235 175 230 161 62 269 124 280 285 245 217 183 186 162 148 153 165 197 173 190 209 248 274 258 260 259
320 318 321 322 322 319 316 317 333 353 249 286 276 281 295 321 17 10 275 315 71 228 289 150 259 206 274 97 79 327 268 55 240 147 75 277 256 235 176 164 140 157 153 176 206 236 201 209 211 216 230 248 249 152
316 318 320 317 317 311 309 315 322 284 292 132 221 267 74 277 21 227 277 311 334 300 319 325 316 248 356 53 77 39 288 239 105 62 221 235 284 249 221 191 192 194 201 230 257 253 239 229 206 206 223 200 134 158
316 317 315 312 305 299 313 314 321 326 348 296 244 298 169 266 242 204 199 206 230 165 246 284 289 255 338 62 2 54 295 54 45 20 271 303 320 335 293 239 166 210 220 231 259 235 237 211 239 135 98 132 145 150
317 315 313 294 289 318 322 318 309 188 181 259 269 253 228 234 265 256 247 165 235 157 99 347 333 93 22 79 54 63 332 121 182 215 228 244 251 282 308 335 310 225 230 240 238 205 194 125 117 123 148 170 168 176
318 316 260 320 329 325 320 312 204 154 245 228 239 276 274 326 288 314 294 229 205 121 65 69 28 1 298 139 147 196 120 227 247 229 231 254 260 283 214 316 314 281 225 226 224 212 139 160 156 182 186 177 192 178
317 242 307 332 329 317 304 260 233 220 229 238 251 232 224 248 244 266 188 203 151 93 170 115 171 248 116 118 209 176 204 218 227 251 245 218 239 282 270 344 318 323 196 199 105 116 162 135 192 92 308 194 195 207
251 294 309 315 334 302 286 220 250 256 254 244 243 259 222 218 234 276 253 166 129 152 110 190 144 299 189 217 247 234 234 246 234 245 219 227 229 244 257 225 264 281 260 147 157 156 169 170 140 247 287 296 178 212
285 290 298 300 288 326 311 280 173 257 249 259 263 284 254 252 245 228 223 154 152 136 112 86 141 237 236 216 220 243 239 220 239 259 238 223 192 202 239 220 214 245 134 212 221 203 188 190 209 198 244 196 189 184
289 284 278 279 176 281 278 269 207 236 264 247 294 276 234 232 243 239 154 169 120 109 111 171 197 218 207 230 204 219 221 220 188 243 275 284 195 215 237 225 226 212 240 217 170 213 252 320 281 234 226 201 159 192
307 257 327 138 199 210 266 298 289 232 262 259 273 333 273 321 287 257 252 157 118 178 204 217 216 232 220 233 222 206 244 204 211 191 223 257 230 201 224 235 247 211 210 202 238 196 214 239 258 249 293 233 178 195
261 292 290 192 261 231 231 231 214 274 324 260 296 214 258 271 267 247 179 127 213 221 194 173 222 208 58 302 259 210 210 212 230 235 277 243 208 194 218 217 173 215 227 214 216 210 253 271 261 251 222 216 180 187
300 210 237 252 271 256 254 308 231 230 239 266 326 313 292 283 250 188 217 222 244 237 184 156 120 130 155 236 265 348 286 198 299 280 271 261 234 222 210 223 177 191 212 244 231 215 230 244 229 215 200 174 174 210
252 257 249 250 205 253 265 265 236 256 261 261 264 282 271 244 262 241 208 41 337 351 19 13 36 27 350 339 327 286 277 230 319 357 299 261 235 239 206 224 211 213 217 237 214 225 233 234 220 214 208 215 196 198
351 268 146 269 263 264 251 235 238 236 257 266 275 297 296 333 209 199 97 350 4 28 7 2 4 14 360 310 305 296 283 199 242 272 302 302 331 313 262 210 235 234 145 245 259 224 224 222 217 217 213 185 171 177
254 244 188 236 237 201 230 258 284 336 310 287 277 283 328 317 277 71 65 352 353 344 334 312 314 316 336 307 330 315 307 341 294 253 247 94 59 28 313 275 213 266 237 252 117 347 293 223 179 176 184 186 167 115
246 257 239 227 249 296 302 294 308 316 281 249 224 296 354 10 46 65 345 19 324 314 313 344 350 34 20 349 338 313 323 336 322 285 309 268 118 118 51 0 351 286 309 332 49 89 82 49 27 24 62 61 74 97
246 260 225 241 243 232 273 282 234 255 275 283 348 76 50 7 359 21 25 339 26 21 329 20 25 343 327 301 317 332 343 329 313 293 207 292 229 267 138 348 341 326 325 332 278 197 151 127 115 109 111 108 102 101
248 255 253 262 264 257 254 255 257 237 171 201 73 108 198 112 31 1 1 344 358 338 30 19 9 356 352 351 344 41 22 357 355 357 358 342 14 324 321 31 1 260 234 117 39 16 101 106 102 110 105 97 90 84
240 187 230 260 270 268 269 243 188 175 144 146 143 166 113 99 37 2 0 25 38 32 22 37 15 18 19 6 3 18 22 12 3 340 332 331 324 309 323 338 328 310 104 101 83 59 50 77 81 82 83 80 80 82
271 270 256 249 261 261 218 216 215 206 206 207 216 151 113 132 147 35 22 25 45 32 21 29 33 21 25 32 29 22 14 6 357 1 349 307 338 15 37 43 46 61 74 82 91 93 88 80 82 84 83 86 89 93
211 215 210 254 268 289 44 15 260 251 256 207 203 104 112 120 88 49 350 25 35 23 28 29 17 17 18 13 19 39 35 13 2 2 4 356 23 40 43 47 61 74 78 79 78 83 82 80 84 90 97 100 95 84
216 231 207 75 356 2 326 2 303 287 255 230 80 77 60 80 100 123 89 64 47 341 65 91 84 56 45 42 39 30 25 33 16 10 17 16 18 27 47 52 59 66 76 81 83 89 93 98 94 89 79 77 78 76